This is the latest recevied weather packets stored in our database for station/object KBTL-WX. If no packets are shown the sender has not sent any weather packets the latest 10 day(s).
| Time | Temp. | Humidity | Pressure | Rain* | Wind** | Luminosity | Snow |
|---|---|---|---|---|---|---|---|
| 1777308312 | 19.44° C | 59% | 981.5 hPa | 0 mm | - | - | - |
| 1777307431 | 19.44° C | 58% | 981.1 hPa | 0 mm | - | - | - |
| 1777306514 | 18.33° C | 58% | 981.1 hPa | 0 mm | - | - | - |
| 1777305637 | 17.78° C | 58% | 981.1 hPa | 0 mm | - | - | - |
| 1777304713 | 17.78° C | 63% | 981.7 hPa | 0 mm | - | - | - |
| 1777303826 | 17.22° C | 61% | 981.3 hPa | 0 mm | - | - | - |
| 1777302913 | 16.11° C | 61% | 981.2 hPa | 0 mm | - | - | - |
| 1777302030 | 15.56° C | 61% | 981.2 hPa | 0 mm | - | - | - |
| 1777301113 | 15° C | 65% | 981.6 hPa | 0 mm | - | - | - |
| 1777300232 | 14.44° C | 65% | 982.3 hPa | 0 mm | - | - | - |
| 1777299313 | 14.44° C | 65% | 982.3 hPa | 0 mm | - | - | - |
| 1777298439 | 13.89° C | 65% | 982.3 hPa | 0 mm | - | - | - |
| 1777297512 | 13.33° C | 75% | 983.2 hPa | 0 mm | - | - | - |
| 1777296630 | 13.33° C | 75% | 983.2 hPa | 0 mm | - | - | - |
| 1777295712 | 12.22° C | 75% | 983.2 hPa | 0 mm | - | - | - |
| 1777294836 | 11.67° C | 75% | 983.2 hPa | 0 mm | - | - | - |
| 1777293912 | 11.11° C | 80% | 982.9 hPa | 0 mm | - | - | - |
| 1777293031 | 10.56° C | 80% | 982.9 hPa | 0 mm | - | - | - |
| 1777292112 | 10° C | 80% | 982.9 hPa | 0 mm | - | - | - |
| 1777291238 | 9.44° C | 80% | 982.9 hPa | 0 mm | - | - | - |
| 1777290317 | 8.89° C | 87% | 983.3 hPa | 0 mm | - | - | - |
| 1777289428 | 8.33° C | 88% | 983 hPa | 0 mm | - | - | - |
| 1777288515 | 7.22° C | 88% | 982.9 hPa | 0 mm | - | - | - |
| 1777287637 | 6.67° C | 88% | 982.9 hPa | 0 mm | - | - | - |
| 1777286717 | 7.22° C | 86% | 984.3 hPa | 0 mm | - | - | - |
* Rain latest hour (hover to see other rain measurements)
** Current wind speed in m/s (hover to see current wind gust speed)